Terminal Aerodrome Forecast
Issued by NWS Sioux Falls, SD

Home | Current Version | Previous Version | Graphics & Text | Print | Product List | Glossary On
Versions: 1 2 3 4 5 6 7 8 9 10 11 12 13 14 15 16 17 18 19 20 21 22 23 24 25 26 27 28 29 30 31 32 33 34 35 36 37 38
000
FTUS43 KFSD 190542
TAFSUX
TAF
KSUX 190542Z 1906/2006 15009KT P6SM SCT250
     FM191100 16007KT P6SM OVC020
     FM191500 16008KT 3SM BR OVC008
     FM192200 15008KT 3SM BR OVC010
     FM200000 15007KT P6SM OVC015=

USA.gov is the U.S. government's official web portal to all federal, state and local government web resources and services.